Wind_Speed
5 6 6 6 5 5 5 5 6 6 5 6 5 2 6 7 5 7 8 6 6 5 3 7 8 6 6 4 4 4 4 5 4 3 2 1 4 4 5 7 8 9 12 19 24 22 25 28 24 21 24 27 28 27 27 26 26 26 26 28 29 30 31 31 31 30 28 26 25 23 22 21 21 21 21 21 21 16 13 12 12 13 15 13 11 11
6 7 6 5 4 2 2 5 9 8 5 4 2 4 6 5 7 10 8 5 6 5 1 8 9 6 5 5 4 4 4 3 3 2 0 3 4 4 6 7 9 10 13 19 22 21 24 25 20 18 22 25 25 25 23 22 24 26 27 29 30 31 31 30 31 31 30 31 31 29 26 24 22 22 22 23 23 20 19 17 15 16 16 13 11 10
5 6 5 5 5 1 2 4 11 11 5 1 1 4 5 5 7 8 6 6 7 4 1 4 7 5 5 5 4 3 3 2 1 2 4 4 3 4 6 8 10 11 13 15 16 19 23 23 19 20 24 24 23 23 21 22 24 24 26 30 32 32 31 30 31 31 31 32 31 31 30 29 26 22 22 23 24 22 22 22 21 21 20 17 12 9
3 4 5 4 5 5 2 6 11 10 5 2 3 5 5 7 7 5 6 10 9 3 1 0 4 4 4 4 3 2 3 3 4 5 5 1 3 3 5 8 10 12 13 12 12 16 21 21 18 20 25 25 23 22 21 22 23 22 24 30 34 33 32 31 30 29 30 30 28 29 29 30 28 25 22 22 23 22 22 23 22 22 20 17 12 9
4 2 5 5 3 7 4 6 9 7 4 1 1 5 6 8 8 7 8 10 10 3 0 2 1 3 5 5 4 4 4 5 6 6 3 2 3 4 6 7 10 12 12 12 11 14 19 21 20 19 21 23 23 22 23 24 24 23 25 28 31 32 31 28 27 27 27 28 29 29 28 27 27 26 23 22 21 21 21 21 20 18 17 16 14 12
3 1 4 4 5 7 4 4 6 5 5 2 1 7 7 9 9 10 10 9 6 2 0 2 3 2 5 7 5 4 5 6 5 4 2 3 3 5 6 8 10 11 12 13 11 14 19 21 22 21 21 22 21 22 24 26 25 25 26 27 28 30 29 25 26 28 28 28 31 31 28 24 22 20 19 21 23 21 19 19 19 20 20 19 16 13
3 1 3 4 5 6 5 3 4 4 4 4 4 8 8 9 9 10 10 6 2 4 1 3 3 3 3 6 6 6 6 5 5 3 1 3 4 6 6 9 11 10 11 12 11 15 19 20 21 21 21 22 22 23 25 26 25 24 26 27 27 28 27 24 26 27 27 28 28 30 29 22 18 18 17 20 24 22 20 18 16 17 18 18 17 16
2 3 3 5 4 5 5 2 3 3 2 5 6 11 11 10 10 9 7 4 3 5 3 4 3 5 3 4 6 7 6 6 4 0 3 3 5 6 7 10 11 10 10 9 10 14 18 20 20 19 21 23 25 26 26 25 23 23 25 26 26 26 25 24 25 25 24 24 24 25 26 22 19 19 19 21 23 21 21 20 18 17 18 18 18 18
1 2 3 4 4 4 3 4 4 1 2 6 9 12 12 10 10 8 5 5 3 3 2 2 5 5 4 2 5 6 5 5 2 2 4 4 6 7 9 11 10 10 10 10 10 13 18 20 18 19 21 22 25 25 23 23 24 24 26 26 25 24 23 23 24 24 24 23 22 21 21 21 21 20 21 23 23 22 21 20 19 19 20 21 21 21
1 2 1 3 4 3 4 6 5 2 3 8 10 13 12 9 8 6 4 5 2 0 2 4 7 4 5 1 4 5 4 3 2 2 3 5 6 6 9 11 10 9 9 9 12 15 18 19 19 21 22 22 23 23 23 24 24 25 25 24 23 23 23 23 22 23 24 24 22 20 20 21 21 20 21 22 22 22 20 20 20 19 20 20 21 22
2 1 2 2 2 2 6 7 5 5 7 9 9 11 10 6 5 3 3 3 2 2 1 5 7 4 4 1 3 2 2 2 1 3 4 5 7 8 9 9 9 9 7 8 13 15 17 19 20 21 22 22 21 21 23 24 24 24 23 22 22 23 23 23 22 22 22 23 22 21 21 21 21 20 20 21 21 22 21 21 20 20 20 20 20 22
2 1 1 1 1 3 6 6 3 6 7 7 6 7 6 2 2 1 2 2 1 3 1 6 7 3 3 2 2 2 3 4 1 3 5 6 7 8 9 9 9 8 7 8 10 12 14 17 17 20 22 21 19 21 22 22 22 22 21 21 23 23 23 22 22 22 21 23 23 22 22 22 22 21 21 23 23 23 22 22 22 21 21 22 22 23
2 1 0 0 1 2 5 5 0 3 3 6 5 6 5 2 1 2 2 1 2 4 1 7 9 3 4 2 4 4 4 3 1 2 4 6 7 8 9 9 8 6 6 7 8 10 12 14 17 20 21 19 19 22 22 20 21 22 21 20 21 22 23 22 22 22 21 22 22 21 22 21 21 22 22 22 22 22 22 22 22 22 22 23 23 23
1 1 0 0 0 2 4 3 2 1 4 5 6 6 4 3 4 4 4 3 4 4 4 9 9 4 4 2 4 5 4 3 2 1 1 4 7 7 7 8 7 5 6 7 8 10 11 14 18 19 17 18 19 21 22 21 20 21 23 22 21 22 24 23 21 22 21 21 21 20 21 21 21 21 21 20 20 21 22 22 22 23 23 24 24 24
2 2 2 2 1 1 3 2 1 2 3 3 4 4 3 3 2 2 3 4 6 7 9 9 5 3 4 2 5 6 6 5 3 2 0 3 4 5 5 6 6 5 5 6 8 7 11 17 18 17 16 17 20 18 19 21 21 20 21 24 22 19 21 22 21 21 21 21 21 20 21 20 20 20 19 20 20 21 22 22 23 24 24 24 24 24
3 2 0 2 2 1 2 1 2 3 2 1 2 2 3 2 1 2 4 6 7 8 8 4 3 3 2 2 5 5 6 4 1 2 3 5 5 5 5 5 5 4 5 8 10 6 12 17 17 14 17 19 20 18 16 18 21 20 21 26 24 17 17 21 21 21 22 21 21 21 21 20 19 19 20 21 21 21 22 23 23 24 24 23 23 23
3 2 3 2 4 4 3 2 3 3 1 1 2 2 1 1 1 2 5 6 5 6 4 2 4 3 1 1 3 5 4 1 4 4 4 5 6 5 5 5 4 4 4 8 11 8 12 16 14 12 16 20 19 17 18 18 18 18 21 25 25 21 19 21 21 22 22 21 21 22 20 20 20 20 21 22 22 23 23 23 23 23 23 23 23 23
1 3 4 4 1 1 3 4 4 4 3 0 1 3 2 2 2 1 3 3 3 4 3 2 7 6 3 2 2 5 5 5 5 5 4 6 6 5 5 5 4 5 5 7 11 12 11 10 10 13 18 20 15 13 18 22 22 18 17 17 19 20 20 21 21 21 22 22 21 21 20 20 21 21 22 22 23 23 23 23 23 23 24 24 24 24
0 2 2 3 3 3 2 4 3 4 6 3 3 1 1 1 1 1 2 2 2 5 5 3 5 6 4 3 1 3 7 7 5 5 6 7 8 6 6 5 5 5 5 5 8 13 13 5 8 14 19 17 12 13 18 22 24 21 16 14 15 17 19 20 20 20 21 22 22 21 21 22 22 22 23 23 23 23 24 24 24 24 25 25 24 24
0 0 1 1 4 4 2 0 0 1 4 3 2 1 1 1 2 0 1 1 1 4 5 5 6 4 3 3 1 5 7 6 5 6 7 8 8 7 6 5 5 4 5 5 6 12 14 9 13 17 17 13 14 17 18 19 22 21 18 17 17 17 18 19 19 20 20 21 21 21 22 23 23 23 24 23 23 24 24 25 24 24 24 24 24 24
1 1 2 1 3 3 2 1 1 1 2 1 1 1 0 1 1 1 1 1 2 2 3 5 8 5 2 3 2 6 6 3 4 6 7 7 8 7 6 5 5 4 4 5 8 11 10 11 16 17 14 15 17 18 19 21 22 18 16 17 16 17 18 18 19 19 20 20 20 21 22 23 24 24 23 23 24 24 25 25 24 24 24 24 24 24
1 2 3 3 2 1 1 2 4 3 3 3 2 1 2 1 1 0 2 1 2 2 2 3 9 9 3 3 5 6 3 2 3 5 6 7 8 7 5 5 5 4 3 3 7 12 11 11 14 15 14 16 18 16 17 21 22 18 17 17 17 17 17 18 19 19 19 20 20 20 22 23 24 24 24 24 25 25 24 24 24 24 24 24 24 24
1 1 3 5 4 0 2 3 5 5 4 3 2 2 3 2 2 2 3 1 1 2 2 2 6 7 2 6 7 4 1 4 4 5 6 7 7 6 5 5 4 4 3 3 7 12 14 13 12 13 16 16 15 15 16 17 19 20 21 19 18 18 17 17 18 18 19 19 19 21 22 23 23 24 24 25 25 24 24 25 25 25 25 24 24 24
0 1 3 5 3 2 2 2 3 5 4 1 2 3 3 3 3 2 1 1 0 2 2 2 5 6 3 6 7 2 4 5 4 4 6 7 6 5 5 5 4 4 4 4 7 11 13 14 13 13 16 14 13 15 16 16 16 18 20 20 19 18 17 17 17 18 18 19 20 21 21 22 23 23 24 24 24 25 25 26 25 25 24 24 24 24
0 1 2 4 4 2 2 2 2 2 1 2 3 4 4 4 5 3 2 2 0 5 6 3 6 7 3 4 6 5 7 6 3 3 5 6 6 6 5 5 4 4 4 4 7 8 9 11 13 14 13 10 14 19 17 15 16 17 20 21 20 19 18 18 17 17 18 19 20 21 21 22 23 23 23 24 25 25 25 26 26 25 24 24 25 25
1 2 2 2 4 5 5 5 4 3 2 2 3 6 5 7 8 4 1 1 2 5 7 5 8 11 9 8 9 8 9 8 4 3 4 5 6 5 5 5 4 4 4 4 6 7 7 10 13 17 13 9 16 20 14 12 14 17 20 21 21 21 21 20 19 18 18 19 20 21 21 22 22 22 23 24 25 25 25 25 26 25 25 25 25 26
1 2 3 4 5 5 6 8 8 6 6 6 4 7 7 7 8 4 1 4 4 3 6 9 12 16 17 14 11 10 10 8 5 4 5 6 6 6 5 4 4 4 4 4 5 5 7 10 14 17 17 16 19 16 9 12 17 18 20 21 21 22 22 21 20 20 20 19 20 20 20 21 22 23 23 24 24 25 25 26 25 25 25 25 25 26
1 3 4 4 7 8 8 13 13 9 9 11 8 7 9 8 8 7 7 9 3 1 8 10 9 14 19 16 14 13 10 7 5 6 6 6 6 6 5 5 6 6 5 5 5 4 5 9 13 15 15 18 21 17 14 17 19 18 20 21 21 22 22 22 22 22 21 20 20 20 20 20 22 23 23 24 24 25 26 26 26 25 26 26 26 26
0 3 2 1 6 10 11 14 15 11 10 10 9 8 9 11 12 12 14 13 5 4 13 13 9 14 19 17 15 13 8 5 5 6 5 6 7 7 7 6 7 6 5 5 5 4 3 7 13 15 14 15 19 20 20 19 18 18 19 20 21 22 22 22 23 23 22 21 21 20 20 21 21 22 23 23 24 25 26 26 27 26 26 26 26 27
1 2 1 1 7 12 13 15 13 9 10 10 10 10 9 11 15 15 15 13 10 13 18 18 18 19 18 16 15 10 4 3 4 5 5 6 7 7 7 7 7 6 6 5 5 4 4 7 14 17 16 15 16 19 20 19 18 19 19 20 21 22 22 23 23 23 22 22 22 21 22 22 21 22 23 23 24 25 26 27 27 27 27 27 28 29
1 0 1 0 6 10 11 10 8 8 9 10 11 11 10 10 12 14 13 11 10 14 17 16 17 18 14 11 11 7 4 4 5 6 6 6 6 7 7 8 7 6 5 5 5 5 5 7 13 17 18 17 16 18 19 18 18 19 20 21 21 22 22 22 22 23 23 23 23 23 23 23 22 22 23 24 24 25 26 27 27 27 28 29 30 31
2 1 2 1 4 8 5 4 8 9 9 11 13 12 12 11 10 10 9 8 9 11 12 11 12 13 8 5 6 6 4 6 8 7 6 6 5 6 7 8 7 6 5 5 5 5 5 6 10 14 17 17 18 18 18 18 19 19 20 20 21 21 22 22 22 23 23 24 24 24 24 23 23 23 24 25 25 25 25 27 27 28 29 29 30 31
1 1 3 2 4 6 4 7 11 10 8 7 8 8 10 11 10 9 8 9 12 10 7 8 10 10 7 5 8 9 7 7 8 6 5 6 6 6 7 7 7 6 5 5 5 5 5 6 9 13 15 16 17 18 18 18 19 19 19 20 21 21 22 22 22 23 23 24 24 24 24 24 24 25 26 26 25 25 25 26 27 28 29 29 30 29
2 0 2 1 3 6 8 11 9 5 5 4 2 2 5 7 9 11 11 11 12 10 8 10 12 11 9 9 10 10 8 6 6 5 5 5 6 6 7 7 6 5 5 5 5 6 6 7 10 14 16 16 16 17 18 18 18 19 19 20 20 20 22 22 22 23 23 24 24 25 25 25 25 26 26 26 26 26 25 26 27 28 28 28 28 28
4 2 2 1 2 4 7 8 6 3 3 2 2 1 1 1 4 8 12 13 12 12 14 15 15 14 12 11 9 8 7 6 5 6 7 7 7 6 7 6 5 5 6 5 5 6 7 8 11 14 15 15 15 16 17 17 18 19 19 19 20 20 21 22 22 23 23 24 24 25 25 26 26 27 27 28 27 26 26 26 27 27 27 27 26 26
4 2 2 1 3 3 4 3 2 7 9 1 2 2 3 2 2 4 11 14 13 14 16 15 15 15 12 10 8 6 5 5 5 7 10 10 8 6 6 6 5 5 6 5 6 7 8 8 11 14 14 13 15 16 17 18 18 19 20 20 20 21 21 21 22 22 23 23 24 25 25 26 27 28 28 28 27 26 26 26 26 27 26 26 26 25
3 2 0 1 2 2 3 3 4 9 11 4 1 1 2 1 2 3 6 12 9 11 12 12 13 13 10 9 8 3 5 6 7 8 8 7 6 6 6 7 7 7 7 7 8 8 8 10 12 13 14 14 14 15 16 18 18 19 21 21 20 21 20 20 21 21 22 23 24 25 26 27 28 29 29 28 28 27 26 25 26 26 25 25 25 26
2 1 1 1 1 1 2 5 4 5 7 3 2 1 4 4 5 7 1 10 7 8 10 11 11 11 9 8 5 3 5 5 9 6 3 5 6 6 7 8 9 9 8 8 8 8 9 11 11 12 14 15 14 14 15 17 18 19 21 21 20 20 20 20 21 21 22 24 25 26 27 27 28 29 28 28 28 28 27 26 26 25 23 23 25 26
0 2 1 1 3 1 1 3 3 4 6 3 4 4 6 6 5 7 2 7 5 5 8 9 10 9 7 7 3 3 3 5 9 5 5 7 6 7 7 7 8 9 8 9 9 9 10 11 11 13 14 14 14 15 15 16 18 19 20 20 20 20 20 20 21 21 22 24 26 27 27 27 28 28 28 28 28 28 28 26 24 22 22 22 23 25
2 1 1 2 4 3 3 3 3 5 6 2 6 6 5 6 7 4 6 8 4 5 6 8 9 9 7 6 4 4 4 8 8 2 6 8 7 8 8 8 8 9 9 9 9 9 10 11 12 13 13 12 13 14 15 16 17 18 19 19 19 19 20 21 21 22 23 25 26 27 27 27 28 29 29 29 29 29 27 25 23 21 21 22 23 24
3 3 4 3 4 4 4 4 4 6 6 2 7 8 7 5 4 3 7 5 4 6 7 7 8 9 7 6 5 6 8 10 6 1 6 7 6 7 9 9 9 10 10 10 10 10 10 11 11 12 12 12 14 14 14 15 16 18 19 19 19 20 20 21 22 23 24 25 25 27 27 28 28 29 29 29 29 28 27 25 23 22 22 22 22 22
3 2 3 3 3 4 4 3 4 6 4 5 8 6 5 2 2 5 5 4 5 7 7 8 9 8 8 8 9 9 9 8 6 4 4 5 5 6 8 9 9 10 10 10 10 10 10 11 12 12 12 13 13 13 13 14 16 18 19 19 20 21 21 21 22 23 24 24 25 27 28 28 28 28 29 28 27 26 26 26 24 23 23 22 21 22
3 2 2 3 4 3 3 2 3 7 3 10 11 4 2 4 5 5 3 3 5 7 7 7 8 8 8 9 10 10 10 8 7 6 5 5 5 6 8 10 10 10 11 11 11 11 11 12 13 13 13 12 12 12 12 13 16 18 19 19 20 20 20 21 21 22 23 25 26 28 29 29 28 28 28 28 27 26 26 26 25 24 22 20 20 21
3 3 3 3 2 3 2 4 5 4 5 12 9 4 7 10 8 5 4 6 6 6 6 6 8 9 9 10 10 9 9 9 8 7 6 6 6 6 9 10 10 11 11 11 12 12 12 12 13 13 13 13 13 12 12 13 16 18 19 20 20 19 19 20 20 21 24 26 27 28 29 29 28 28 27 26 26 25 25 25 24 23 21 20 20 19
4 4 2 2 3 3 5 9 9 4 4 10 10 10 11 11 9 7 7 8 7 6 6 6 7 8 9 10 9 8 8 9 8 7 7 7 6 7 8 10 12 12 12 12 12 12 12 13 14 14 14 15 14 13 13 13 15 17 20 20 19 18 18 19 20 22 25 26 27 28 29 29 28 26 25 25 25 24 24 23 22 21 20 19 19 19
4 4 4 1 2 3 8 13 14 13 11 10 11 12 13 13 11 8 8 9 9 8 6 6 8 8 8 9 8 9 9 9 8 8 7 7 7 7 9 11 12 12 13 12 12 12 13 13 13 14 15 15 14 13 13 13 14 17 19 19 18 18 19 20 21 23 24 25 27 27 27 27 26 25 23 23 23 23 22 21 20 20 20 19 19 19
1 4 2 3 1 2 7 9 8 11 14 11 9 10 12 13 12 9 8 9 9 8 7 8 8 8 7 9 10 10 9 8 8 8 7 7 7 8 9 11 12 13 15 15 14 13 13 13 13 14 15 16 15 14 13 14 15 16 17 18 18 18 19 20 21 23 24 25 27 26 25 24 23 23 23 23 22 21 21 20 19 19 19 19 19 19
1 2 1 5 5 5 10 13 11 13 16 13 11 10 10 11 12 10 9 9 9 8 8 8 8 7 7 9 10 10 10 9 9 9 7 7 7 8 10 12 13 14 15 16 15 14 14 14 15 15 16 16 15 14 14 15 15 14 15 16 17 17 18 20 21 21 23 25 25 24 22 21 21 22 23 23 22 21 21 20 20 19 19 19 19 20
3 1 2 3 4 7 12 16 15 13 14 14 13 11 10 10 10 10 9 9 8 8 8 8 9 10 10 10 9 9 10 10 9 9 9 7 7 9 12 14 15 16 17 16 16 15 16 16 17 16 17 17 15 15 15 16 15 14 14 15 16 16 17 20 20 21 23 23 22 21 21 20 19 20 21 22 22 21 21 20 19 19 19 18 18 18
3 4 3 0 3 7 10 12 8 6 9 12 10 9 9 9 9 8 8 8 10 11 10 10 10 10 11 13 12 10 10 11 10 10 10 9 9 12 15 16 16 17 18 17 16 16 17 18 18 17 17 17 16 15 15 15 15 14 14 15 14 14 16 18 20 21 22 20 20 20 20 20 20 20 20 21 22 22 22 20 18 17 17 17 16 16
6 6 4 3 6 9 12 13 9 5 9 13 11 8 7 6 7 9 10 11 12 12 10 10 11 11 11 14 16 15 12 11 11 12 10 10 13 16 17 17 18 18 18 18 17 17 17 18 17 18 18 18 17 16 16 16 16 15 15 14 13 14 15 17 18 20 21 20 20 20 19 19 20 20 19 19 19 20 22 23 21 18 15 14 16 16
Wind_Direction
41 54 47 26 20 17 6 6 359 325 275 266 275 325 325 305 302 322 325 340 10 339 334 98 110 110 106 106 107 115 115 114 115 104 88 313 275 303 355 353 343 335 324 327 328 334 340 336 336 348 356 354 351 348 346 346 348 350 354 356 355 351 348 346 344 341 337 332 326 318 310 303 299 299 299 298 298 301 304 291 282 292 299 296 298 311
54 51 48 14 357 359 323 339 353 338 281 244 287 333 320 314 317 312 306 337 357 321 331 111 117 113 111 113 106 111 104 98 99 95 271 272 289 340 1 348 337 327 323 327 330 340 341 331 329 347 355 348 344 344 344 348 353 352 353 353 350 347 344 342 339 337 335 333 331 328 323 314 302 293 292 296 297 298 302 299 290 287 284 276 278 297
63 48 34 354 335 305 214 352 358 342 312 190 31 335 322 335 326 302 298 333 334 304 274 113 121 122 123 113 93 97 98 103 126 191 227 257 324 0 357 344 335 328 329 331 336 343 337 326 330 351 354 346 343 345 349 355 353 350 350 350 348 344 341 337 333 329 325 323 324 326 325 322 316 303 290 288 288 287 287 287 282 275 267 258 260 281
66 44 9 318 331 7 38 28 8 343 339 60 30 351 327 334 335 306 312 321 314 299 282 329 119 131 144 130 128 135 137 167 210 230 225 257 340 1 0 341 330 330 331 331 338 341 334 327 336 356 355 347 349 353 354 355 348 344 345 343 343 341 337 333 326 321 319 318 319 319 320 322 322 318 308 293 285 281 277 274 270 265 258 255 264 289
79 26 330 299 359 16 18 37 19 347 345 33 47 13 336 324 326 303 304 314 312 317 322 332 110 165 176 171 171 164 188 200 206 231 253 342 340 3 358 332 328 334 334 329 334 339 335 328 329 349 358 351 353 355 352 349 341 337 337 336 339 338 333 328 326 327 331 332 330 323 317 319 322 324 326 318 303 289 281 281 282 282 282 283 285 290
75 307 304 331 27 18 13 43 28 354 334 290 351 11 336 312 314 301 302 314 315 297 188 5 333 226 174 184 189 172 207 211 185 204 279 352 357 2 345 330 334 338 334 328 333 338 335 332 336 355 7 355 349 349 346 342 337 337 336 335 338 336 330 328 332 337 339 337 339 335 322 316 323 331 336 336 331 323 310 303 300 297 298 302 300 294
59 21 344 8 28 18 15 46 46 23 337 292 319 346 322 301 299 288 296 310 307 295 245 94 8 310 188 186 188 179 207 217 184 192 358 22 5 356 344 338 336 335 333 327 334 342 338 342 353 6 9 356 346 343 341 336 334 338 339 336 335 332 327 329 332 334 335 335 338 340 333 328 335 339 337 337 338 341 338 332 324 313 307 308 310 307
36 34 24 11 22 28 14 355 24 37 328 281 310 323 306 295 286 273 284 272 262 305 274 123 35 306 253 189 186 184 207 220 193 81 5 10 355 349 347 340 334 334 333 328 337 347 344 345 355 7 8 356 344 339 339 339 338 340 339 335 333 330 326 329 331 328 331 337 335 334 335 338 341 338 336 336 333 332 334 333 330 324 317 313 313 311
36 48 39 18 24 25 350 316 318 351 268 275 298 305 293 288 278 263 266 254 258 341 301 12 12 306 273 168 182 189 206 227 213 8 335 346 355 350 342 335 334 335 331 337 347 347 344 345 355 3 357 348 342 340 343 344 341 339 337 334 332 331 329 328 329 327 328 331 328 325 326 331 334 332 331 331 328 326 327 324 320 318 314 310 309 306
116 10 350 49 43 353 317 302 291 262 254 274 294 298 291 283 266 241 222 243 270 3 270 359 21 327 296 172 170 192 202 229 296 322 310 347 350 340 338 334 336 336 330 346 349 343 344 346 352 351 343 344 347 347 347 342 336 334 332 333 333 333 332 329 329 330 329 327 325 324 324 326 328 328 327 325 322 322 322 319 315 311 308 304 301 300
141 314 308 69 64 306 291 282 258 226 253 279 300 302 298 275 247 227 204 223 277 237 193 22 28 5 309 220 154 193 173 167 267 295 317 347 341 335 336 334 338 334 335 353 343 341 350 347 344 343 342 347 349 347 342 334 333 334 332 333 334 332 330 329 328 329 329 329 328 327 326 326 325 324 323 320 317 317 316 314 311 307 304 300 297 296
154 192 298 46 2 304 301 291 220 202 255 303 313 307 316 273 216 257 220 181 281 259 89 20 9 0 275 255 144 158 145 142 192 315 335 339 334 334 335 337 339 332 343 352 335 339 347 340 341 342 342 345 347 342 333 330 339 340 334 332 331 329 329 328 327 326 325 326 326 325 324 321 320 317 315 313 309 308 308 307 305 303 301 299 297 295
182 209 193 144 295 322 321 320 6 181 285 337 331 330 350 343 1 356 288 193 229 239 18 358 342 304 252 242 136 152 155 142 80 352 336 330 329 334 339 337 333 334 351 346 330 335 338 342 347 340 339 345 342 333 327 335 349 338 325 326 328 329 329 327 326 323 323 324 323 322 321 318 315 311 307 306 304 305 306 305 305 304 302 301 299 297
305 309 322 89 324 351 358 355 11 345 336 352 351 354 16 25 5 345 325 322 272 256 310 321 312 278 261 240 152 143 146 153 130 118 299 335 334 334 338 332 328 342 355 340 321 325 337 352 346 332 341 347 331 323 328 340 346 330 323 329 330 328 328 326 325 324 323 323 322 321 319 317 314 310 308 309 309 309 308 307 306 305 304 303 301 298
311 284 302 336 287 342 30 57 196 273 307 344 5 8 38 63 34 318 314 318 299 294 304 301 276 257 287 248 151 141 155 168 172 188 243 349 332 330 333 328 331 343 348 324 303 322 355 350 332 329 347 337 315 317 331 336 337 328 326 327 321 319 324 324 323 324 324 322 320 319 316 314 312 311 312 313 310 308 306 306 305 303 302 300 299 298
285 252 190 11 9 51 50 50 266 285 284 301 21 30 37 45 203 239 257 259 277 293 300 290 225 228 258 156 135 152 171 167 242 293 342 343 336 345 339 327 332 344 343 318 304 340 8 340 320 336 347 327 320 335 343 336 332 330 329 327 326 333 335 326 322 324 322 320 319 317 315 314 312 311 311 309 307 306 305 304 302 300 299 298 297 297
303 263 164 92 19 36 64 43 357 350 301 282 356 359 9 53 171 239 265 261 270 281 284 302 287 290 61 148 166 186 202 270 322 322 340 336 338 347 336 327 337 341 333 318 316 346 6 339 331 356 343 321 323 339 344 332 314 313 320 319 326 339 336 325 322 322 319 318 318 316 314 314 313 312 311 309 308 307 306 304 302 300 299 298 298 297
322 281 203 169 77 48 92 70 40 3 329 318 46 309 310 98 124 213 286 298 309 281 275 302 298 303 322 303 211 206 261 308 312 313 322 328 339 341 331 330 335 331 321 325 329 334 343 343 1 5 333 315 318 329 335 326 308 308 322 321 326 333 327 322 321 319 318 319 318 316 315 314 314 313 312 310 309 307 306 304 303 303 300 299 298 296
261 287 237 175 141 148 132 75 51 344 340 39 130 244 322 87 252 303 313 311 321 306 302 297 294 293 265 259 267 261 284 299 300 311 326 335 342 339 334 328 326 331 321 323 328 320 317 336 39 6 327 317 336 340 334 325 317 323 335 337 338 330 320 319 318 316 317 318 316 315 315 315 315 314 313 311 309 308 307 306 305 304 301 300 299 297
306 130 281 186 119 134 172 107 97 294 342 18 114 129 80 174 238 319 347 255 239 298 308 312 312 306 223 206 292 286 278 286 310 329 333 339 343 338 334 328 325 329 319 324 320 306 308 340 18 2 336 334 348 342 334 322 311 314 324 331 334 325 318 316 315 316 316 315 314 313 313 314 314 313 312 310 310 310 308 307 306 304 302 301 300 298
312 237 283 2 90 116 175 313 343 144 128 111 129 89 46 277 152 130 200 153 145 251 290 308 302 289 216 165 206 251 260 282 342 343 334 337 342 335 330 327 320 320 321 327 316 305 315 354 360 349 341 345 343 335 332 320 306 307 323 331 327 319 316 314 314 316 314 313 313 311 312 313 313 313 312 311 311 310 309 308 307 305 304 302 300 299
325 280 288 295 299 263 137 14 359 31 85 111 134 158 168 148 90 339 281 148 127 201 214 280 290 284 258 169 196 228 259 14 19 354 339 334 333 327 325 319 309 313 320 310 311 316 330 350 347 335 332 337 334 328 322 316 316 324 331 329 319 314 313 313 315 315 313 312 312 312 313 313 313 313 312 312 312 310 310 309 308 307 305 302 300 298
8 295 279 275 278 105 80 28 25 39 51 94 132 138 139 149 167 226 270 248 179 237 227 227 266 277 227 179 208 228 27 43 43 14 343 328 325 324 317 310 300 297 301 300 310 317 322 330 339 334 327 325 322 318 311 308 315 322 322 320 314 311 311 311 313 312 311 312 312 313 313 312 312 313 312 313 312 311 312 310 309 308 304 302 300 298
290 228 255 272 264 142 106 359 26 37 30 57 180 166 162 172 171 180 234 342 303 241 235 220 252 266 210 187 217 258 20 28 45 19 343 325 320 319 308 301 296 290 295 304 304 306 315 330 344 335 322 321 319 309 303 305 310 314 315 314 310 309 310 311 312 311 311 312 311 312 312 311 312 312 312 313 313 313 312 311 310 308 305 301 300 297
300 214 289 307 312 318 331 337 354 21 9 247 212 179 176 150 119 103 106 83 329 223 202 208 257 260 239 230 268 318 345 351 19 10 342 324 309 308 303 294 286 288 298 304 304 308 322 333 333 316 306 320 323 308 298 302 312 316 315 311 310 311 311 311 311 310 311 311 310 311 310 310 311 312 313 314 313 313 311 310 310 307 305 302 299 298
252 275 304 321 329 328 320 309 314 328 297 254 174 165 173 155 148 151 149 156 252 223 197 216 263 273 283 288 295 315 324 324 337 343 327 310 300 299 296 295 287 284 289 292 301 319 334 335 324 313 315 336 324 307 296 305 319 322 315 309 310 311 311 312 311 310 310 310 309 310 310 310 312 313 314 313 313 312 311 310 310 307 304 302 300 299
248 270 248 235 245 264 279 281 295 316 299 280 229 181 179 174 174 166 150 213 226 232 233 237 253 275 288 293 298 308 312 312 315 318 313 307 303 300 295 294 290 288 290 290 299 323 336 332 322 318 328 332 317 305 311 327 328 324 314 308 310 312 311 311 311 310 309 308 307 307 308 310 311 312 312 312 311 311 310 309 308 307 305 302 300 298
258 266 236 230 247 254 270 279 287 294 277 270 260 209 181 179 181 174 203 228 223 340 271 247 235 268 285 294 299 302 306 308 306 308 310 307 302 302 304 300 294 296 297 295 305 328 336 325 317 317 324 321 312 316 334 335 327 319 310 307 310 311 310 311 311 309 308 307 306 305 307 309 310 310 310 310 310 309 309 308 307 306 305 302 300 297
328 264 225 186 262 268 274 275 275 271 259 256 256 234 197 184 186 196 221 233 217 227 258 265 270 276 282 289 293 296 302 304 295 294 296 298 303 306 306 299 291 294 299 299 307 317 320 317 314 314 315 312 311 317 327 328 321 312 307 306 309 309 310 311 310 308 307 305 304 305 307 309 309 308 309 309 309 309 308 308 308 307 305 303 300 297
166 241 240 256 275 279 276 271 266 258 258 258 251 245 230 205 199 209 229 234 226 237 255 272 280 276 275 281 286 289 287 262 267 278 286 295 303 305 299 293 288 288 292 296 300 300 298 308 312 313 314 311 309 313 317 316 313 309 307 308 309 309 310 310 309 308 306 303 304 306 308 307 307 307 308 308 309 309 309 309 308 307 306 304 303 303
176 232 22 285 292 289 275 264 256 248 260 269 264 252 242 234 223 223 232 233 234 247 255 265 274 274 271 268 268 270 268 271 275 278 286 293 297 294 289 284 283 283 284 289 293 293 288 298 310 316 316 317 319 317 313 309 307 307 307 308 308 308 309 310 308 307 305 304 306 307 307 307 307 306 306 307 308 309 309 309 308 308 308 308 309 310
174 290 328 6 309 292 284 291 284 279 279 277 275 265 243 239 237 227 225 216 213 238 257 263 267 273 271 253 255 265 273 284 286 283 283 286 283 282 280 277 275 275 277 285 288 287 285 293 305 309 310 317 321 314 308 306 306 306 306 306 307 306 307 308 307 305 304 304 305 306 306 307 307 307 306 306 307 308 309 309 308 308 309 309 311 313
140 301 323 356 300 278 314 328 305 305 312 283 264 252 230 229 237 237 236 224 214 224 251 258 255 267 282 286 283 287 288 284 286 283 272 276 278 274 268 263 265 268 272 281 283 280 282 288 296 300 305 314 315 308 304 305 304 304 304 305 306 306 307 307 306 304 303 304 305 305 306 307 307 306 306 306 307 308 308 308 308 308 309 309 311 312
113 140 289 311 282 284 313 319 310 321 334 298 249 201 206 221 237 242 243 236 223 218 228 245 260 274 283 282 280 285 288 283 283 273 254 262 273 269 260 253 255 262 267 272 275 278 279 282 293 301 306 310 308 303 303 303 301 302 303 302 304 306 306 306 304 304 303 304 305 305 305 306 306 306 305 306 307 307 306 306 307 308 310 310 310 310
145 179 243 210 232 280 308 327 337 330 281 219 161 61 50 310 277 271 270 259 241 239 245 253 265 272 273 274 276 282 286 286 287 282 273 266 257 247 249 249 246 254 262 264 268 274 276 281 292 299 302 306 307 304 304 304 302 301 301 301 304 304 304 303 302 302 302 303 304 305 306 306 306 305 306 306 306 306 305 305 306 308 310 311 310 309
154 183 263 243 225 266 315 355 326 289 292 273 131 81 58 31 352 319 292 270 238 237 251 254 260 266 268 269 271 284 311 319 302 277 267 260 242 216 223 237 239 247 253 256 262 264 265 273 283 290 296 302 303 303 304 304 302 301 301 301 302 302 301 301 300 301 302 302 304 305 307 307 306 304 305 306 306 305 304 304 305 307 310 311 310 310
152 158 174 254 223 239 307 285 245 280 299 317 148 187 133 127 107 101 293 281 242 221 237 247 256 260 259 265 276 316 14 349 304 274 252 237 210 186 205 226 234 242 247 253 257 254 258 269 275 281 291 298 301 302 304 302 300 301 301 301 300 300 300 299 298 300 302 302 304 306 307 307 306 304 305 305 305 304 304 305 306 308 310 311 311 313
151 237 108 167 245 66 319 295 301 299 290 260 192 154 103 82 83 102 316 292 270 213 216 229 243 249 251 264 282 28 43 333 294 276 208 183 180 186 213 228 229 235 242 245 249 251 259 268 271 276 286 294 300 302 303 301 301 301 301 299 299 298 298 298 299 301 302 303 305 306 307 306 305 304 304 303 303 303 304 305 306 308 310 310 310 311
24 313 52 171 273 322 299 279 282 275 271 236 164 133 99 94 102 101 17 297 271 199 198 212 227 238 246 252 240 99 62 295 288 272 183 185 191 189 209 227 228 232 235 233 240 253 262 267 272 278 283 289 294 297 299 301 302 300 297 297 297 297 297 297 299 301 302 304 305 306 306 307 306 305 303 302 302 303 304 305 305 305 307 308 308 309
200 243 179 199 242 230 213 250 251 254 269 225 149 136 107 112 119 85 329 302 253 195 193 199 219 232 232 229 203 158 196 253 279 273 162 175 188 193 206 220 223 228 233 231 237 250 259 265 271 273 278 288 296 298 299 300 299 296 293 295 295 294 294 297 300 302 303 304 305 305 306 307 306 306 304 303 302 303 304 304 303 303 305 308 309 309
191 195 191 211 245 227 215 247 265 258 260 194 137 136 135 129 102 0 308 282 209 204 207 201 217 228 221 209 202 202 218 236 256 210 150 167 190 203 211 219 222 228 233 235 240 248 255 262 268 269 276 288 294 295 297 298 296 292 292 294 293 291 294 299 302 303 304 304 304 305 306 307 307 307 306 305 304 304 304 305 304 304 306 309 310 310
187 180 186 202 230 228 218 234 275 276 250 137 124 131 141 139 315 291 262 214 186 203 213 209 215 220 216 212 216 227 238 241 243 236 196 195 208 213 215 219 222 227 229 232 238 244 247 254 265 274 279 284 287 290 294 294 291 291 292 292 290 292 298 301 303 304 305 305 305 306 308 309 310 309 308 307 307 305 305 307 307 306 307 308 309 310
171 160 210 209 198 211 235 245 287 289 239 137 124 115 178 205 240 249 233 214 202 200 204 212 216 213 213 221 227 234 243 246 243 241 232 222 221 221 221 221 222 225 227 231 238 242 243 251 264 271 273 277 283 287 288 287 288 291 291 288 291 297 301 301 302 304 305 305 306 308 310 312 312 312 311 309 308 306 306 307 308 309 309 309 309 310
180 178 217 230 178 158 213 228 228 239 180 156 158 202 220 216 232 259 276 268 241 209 198 216 223 212 207 219 231 233 237 242 239 234 231 229 225 218 218 220 222 225 226 228 236 240 241 249 261 266 268 275 282 282 279 281 286 288 287 288 295 302 302 302 304 305 305 306 307 310 313 314 315 314 313 312 310 308 306 307 310 311 311 312 312 313
213 183 172 234 221 192 230 248 252 254 184 181 205 238 244 243 247 244 241 254 255 228 205 215 229 218 205 212 226 231 234 237 234 227 226 227 224 218 218 220 221 224 227 230 235 238 239 247 258 266 270 274 277 275 275 278 281 282 285 292 301 304 303 305 306 305 306 307 308 311 315 316 316 317 316 315 313 310 308 308 310 311 313 314 313 313
208 135 117 197 255 281 270 260 259 267 263 235 226 239 250 257 258 241 228 243 251 237 216 216 226 218 201 201 215 228 232 230 229 227 224 223 223 217 217 220 220 220 222 223 225 229 237 247 256 261 265 271 273 273 274 274 275 279 285 294 302 303 303 305 306 305 307 308 310 313 317 317 317 318 317 317 317 314 310 308 308 309 310 310 309 309
176 107 143 226 241 342 279 256 238 251 263 261 250 248 249 250 250 240 229 239 246 238 224 220 220 212 198 197 209 227 233 224 221 226 221 217 222 218 213 216 216 215 219 223 225 229 235 243 250 253 258 265 270 271 272 273 275 280 288 294 299 301 302 304 305 305 307 309 312 315 317 316 315 316 317 319 318 316 313 310 308 306 305 304 304 304
156 81 230 234 213 223 260 271 272 269 271 273 269 264 259 253 248 237 230 237 243 238 228 219 208 201 204 207 210 222 231 222 217 223 220 214 217 216 214 215 214 215 219 223 225 228 231 235 242 247 253 259 265 269 271 275 280 285 289 293 297 300 302 303 305 305 307 310 313 315 315 315 315 316 318 320 318 317 316 314 311 305 301 302 302 301
108 149 220 230 242 255 267 275 280 282 281 275 264 256 256 254 247 239 235 235 236 235 232 223 211 206 211 215 210 214 225 225 216 215 217 217 213 211 213 215 215 217 219 220 223 227 230 233 240 245 251 256 262 268 271 276 282 286 288 292 298 300 301 303 305 306 308 311 313 314 315 315 316 318 319 319 319 318 317 316 312 307 304 306 309 309
132 227 231 243 276 268 268 270 276 290 289 283 274 265 260 252 242 238 236 232 231 231 228 225 224 220 219 221 214 209 221 227 216 209 213 216 212 211 211 211 212 215 219 221 225 227 229 234 239 244 249 256 260 265 270 276 280 285 289 294 298 297 297 300 304 306 308 311 312 314 316 316 316 320 321 320 321 321 320 320 319 315 312 314 317 321
201 221 185 182 241 258 272 280 285 283 281 286 292 290 273 247 230 236 238 235 234 232 222 220 227 227 225 224 217 213 221 226 212 205 211 216 214 212 210 209 210 212 216 218 219 222 226 232 236 240 246 253 257 261 267 272 277 284 291 295 296 293 293 298 302 303 306 309 311 314 315 314 315 320 322 322 323 323 322 323 325 325 325 323 326 332
Height
845 854 861 865 867 867 865 864 864 863 861 861 860 860 862 861 855 851 849 845 845 849 851 860 871 876 879 880 879 880 881 883 885 886 889 888 888 886 884 885 885 885 884 882 881 880 879 878 876 875 873 871 870 868 868 867 866 865 863 862 860 858 856 854 852 850 848 846 844 842 840 839 838 838 837 836 836 834 834 834 834 835 835 834 833 832
850 862 868 868 865 865 865 863 862 862 858 857 858 860 862 860 857 853 850 847 846 849 852 861 874 879 881 881 880 881 882 885 886 888 889 887 886 885 885 886 885 884 883 882 881 879 879 878 875 874 872 872 871 869 869 868 867 866 864 863 862 860 858 856 854 852 850 848 845 843 840 839 837 836 836 835 835 834 834 833 833 833 833 833 832 831
859 868 868 865 862 861 864 863 863 862 857 855 857 862 865 863 861 855 848 847 847 849 849 855 873 882 882 883 883 883 885 887 886 887 887 885 884 884 886 886 885 884 882 881 880 878 878 876 874 873 872 872 872 870 870 869 868 867 866 865 864 862 860 858 856 854 851 849 847 844 841 839 836 834 834 833 833 833 833 832 832 830 830 830 829 828
866 870 866 863 861 860 862 864 866 865 858 856 859 866 870 866 867 865 854 849 846 847 848 850 871 886 884 885 887 885 885 886 885 884 883 882 882 883 885 886 885 883 882 880 878 878 877 875 873 872 872 873 872 871 870 869 869 869 867 866 865 864 862 859 857 855 852 849 847 844 841 839 836 834 832 831 831 831 830 830 829 828 828 828 828 827
870 869 864 862 861 861 863 866 870 871 864 860 861 867 871 867 869 868 858 851 846 846 847 848 865 882 883 885 886 885 885 884 883 882 880 880 880 882 884 885 884 883 882 879 877 877 876 874 873 871 872 873 873 872 871 871 870 869 868 866 865 864 863 860 857 855 852 849 846 843 840 838 836 834 832 831 830 829 828 828 827 827 827 828 826 825
870 867 864 863 863 862 865 868 872 874 871 865 860 862 868 867 866 865 859 855 853 851 848 848 859 869 876 881 881 883 884 880 880 879 878 880 880 882 883 883 883 882 881 880 877 877 875 874 873 871 871 873 873 873 872 872 871 869 868 866 865 865 863 860 857 855 852 849 847 844 841 838 836 835 834 833 831 829 827 826 826 826 826 826 825 824
867 866 865 864 865 865 866 869 871 873 877 870 858 859 864 863 865 864 859 861 861 854 844 846 859 865 869 878 879 879 882 878 876 877 877 880 881 881 883 883 882 881 880 879 877 876 876 874 873 872 872 873 874 873 873 872 871 869 868 867 866 865 863 860 858 856 853 851 849 846 843 840 838 836 835 834 832 830 828 827 826 825 825 825 824 823
868 868 869 867 866 868 870 872 870 871 879 871 856 858 862 860 861 858 857 861 857 850 843 842 854 859 856 868 875 874 878 877 874 877 878 880 881 881 882 883 882 881 879 878 876 876 876 875 874 873 873 874 875 874 873 872 870 869 868 867 866 865 863 861 859 857 854 852 850 848 845 842 840 838 836 834 833 831 829 828 826 825 825 824 823 822
872 871 873 870 869 871 873 873 869 870 876 868 857 859 858 856 855 852 855 856 850 852 853 843 850 858 851 861 877 875 875 876 874 879 881 879 881 881 883 883 881 880 879 877 877 876 876 875 874 874 874 874 875 874 873 872 870 869 868 867 866 864 862 860 859 856 854 853 850 848 846 843 840 838 836 835 833 832 830 828 827 826 825 824 823 822
873 873 872 871 874 875 872 871 868 870 872 864 858 857 852 850 848 847 851 851 850 857 858 848 851 863 856 855 870 874 872 876 878 881 881 879 880 881 882 882 880 879 878 877 877 877 876 876 875 875 874 874 874 874 873 872 870 869 867 866 865 864 862 860 858 856 854 852 850 848 846 843 841 839 837 836 834 832 830 828 827 826 825 824 823 822
874 875 873 872 876 875 871 870 866 867 868 861 860 857 850 846 842 845 846 847 854 853 851 849 851 866 868 855 858 868 871 878 883 882 880 879 880 881 881 880 879 878 877 877 877 877 876 876 875 875 874 873 873 874 873 871 870 868 867 866 864 863 861 859 858 856 854 852 849 848 845 843 841 840 838 836 834 832 831 828 827 826 825 824 823 822
874 874 874 873 875 873 870 866 862 865 865 862 864 860 852 845 843 847 845 848 859 852 845 849 850 867 875 859 861 874 875 878 882 881 880 880 880 880 879 878 878 878 877 877 877 876 875 875 875 874 873 873 873 873 872 870 868 868 867 865 863 862 860 859 857 855 853 851 849 847 846 844 842 840 838 837 834 832 830 828 826 825 823 822 821 820
874 875 876 875 874 874 871 867 863 865 865 865 867 864 860 855 854 856 852 854 860 851 845 849 855 869 866 855 865 875 875 878 878 878 880 880 879 879 878 878 877 877 877 877 876 875 874 873 873 874 873 872 872 872 870 867 867 868 866 863 861 861 859 858 856 854 852 850 849 847 845 843 842 840 838 836 834 831 829 827 825 824 822 820 819 818
872 875 876 876 876 874 873 875 875 873 871 871 871 871 872 874 877 874 866 864 862 854 848 849 859 865 853 852 868 873 873 877 875 876 878 877 878 877 877 878 877 877 877 877 876 873 872 872 873 873 872 872 872 870 868 866 866 866 864 861 860 859 858 857 854 853 851 849 848 846 845 843 841 839 837 835 833 831 829 827 825 823 821 819 817 816
873 871 875 876 876 875 876 880 881 880 878 874 871 873 878 886 892 886 879 879 878 870 860 854 856 853 847 854 867 870 872 873 872 873 874 874 876 876 876 877 876 876 877 876 873 870 870 872 872 871 870 871 870 867 865 865 864 864 862 860 857 855 856 855 853 851 850 848 846 845 843 842 840 838 835 834 832 830 828 826 824 822 820 818 816 814
871 866 876 879 875 876 879 879 878 879 878 871 869 877 886 891 892 890 886 885 888 887 870 854 847 844 851 865 868 867 869 868 869 870 870 872 873 874 875 875 875 876 875 874 871 868 869 871 871 869 869 870 869 866 864 864 863 862 861 859 856 854 853 853 852 850 848 846 845 843 842 840 838 836 834 832 830 828 827 825 822 820 818 816 814 812
877 869 877 880 878 879 880 879 879 879 877 872 875 885 891 892 891 895 893 881 885 892 872 851 847 846 855 867 869 868 866 865 867 868 869 872 871 873 874 874 874 874 874 873 872 869 868 868 870 868 868 869 867 866 864 862 862 859 857 856 855 853 852 852 851 849 846 845 843 841 840 838 837 835 833 831 828 826 825 823 821 818 816 814 812 810
890 879 874 877 880 881 881 881 882 883 881 878 884 890 889 890 892 896 897 889 893 895 871 853 858 860 858 862 868 870 866 865 867 867 869 870 869 872 873 872 873 872 872 872 872 871 867 866 868 867 867 867 864 864 863 861 860 857 855 854 853 852 851 850 849 847 845 843 841 839 838 836 835 833 831 829 827 824 822 820 819 816 814 812 810 808
896 885 873 872 878 882 883 883 883 886 885 881 884 889 889 895 896 892 894 899 904 902 879 862 865 864 854 854 862 867 865 865 866 866 867 868 868 869 870 870 871 870 871 871 871 870 866 864 864 863 865 865 863 862 861 860 858 856 855 854 852 851 850 849 847 845 844 842 840 838 836 834 833 831 829 827 825 823 820 818 816 814 812 810 808 807
896 891 877 871 877 883 884 883 882 885 890 887 886 888 890 894 895 894 898 901 907 912 902 883 870 859 849 850 858 862 862 863 864 865 866 865 866 867 868 868 869 869 870 870 870 869 867 865 862 862 864 864 862 861 860 859 857 855 853 852 850 850 848 847 846 844 842 840 838 836 834 833 831 829 827 825 823 821 819 817 815 812 811 808 806 805
896 893 882 874 877 880 880 881 878 877 884 887 888 892 895 894 893 897 903 903 908 917 917 907 885 857 847 855 859 858 858 859 861 863 863 863 864 865 867 867 867 868 868 869 869 867 866 865 862 862 864 862 861 860 859 858 856 854 852 850 849 848 846 845 843 842 840 838 836 834 832 831 829 827 825 823 821 819 817 815 813 811 809 807 805 803
898 895 889 881 875 872 878 885 883 878 880 883 886 892 895 897 898 902 904 902 907 912 913 918 904 865 848 855 855 852 854 855 857 861 861 862 864 864 865 866 866 866 866 868 868 866 865 863 861 861 862 860 860 859 858 856 855 853 851 849 848 846 845 843 841 839 838 836 834 832 830 829 826 824 823 821 819 817 815 813 811 809 807 805 803 801
904 903 899 887 876 878 886 888 886 884 883 883 887 888 891 897 900 901 901 899 906 907 903 915 913 873 848 851 850 846 850 851 854 859 860 861 862 862 864 864 864 865 865 865 866 865 863 860 859 860 859 859 858 857 856 854 853 852 850 848 847 845 843 841 839 837 836 834 832 830 828 826 824 822 820 818 816 814 813 811 809 808 805 803 801 799
906 904 899 883 873 883 893 891 888 890 890 888 888 888 893 897 896 899 904 907 911 908 903 914 909 868 843 847 846 842 845 849 852 856 858 860 860 861 862 862 862 863 862 863 863 862 861 859 858 858 857 856 856 855 854 852 851 850 849 847 845 843 841 839 837 835 833 832 830 828 826 824 822 820 818 816 814 812 811 809 807 805 803 801 799 796
902 893 892 884 872 874 880 881 885 889 890 888 887 888 891 895 900 906 911 916 915 904 903 914 897 855 837 842 840 839 844 847 851 855 857 859 859 860 860 860 860 861 860 861 861 859 859 858 857 856 854 853 854 853 852 851 850 848 847 846 844 841 839 837 835 833 831 829 828 825 824 822 820 818 816 814 812 810 808 806 805 803 801 799 796 794
904 891 891 891 883 877 875 872 872 876 878 878 881 889 893 897 904 903 904 914 912 894 892 897 876 843 835 839 838 841 844 845 850 854 855 857 858 858 858 858 858 859 858 859 858 857 857 857 856 854 852 851 851 850 849 849 848 846 845 845 843 840 838 835 833 831 828 827 825 823 822 820 818 816 814 812 810 808 806 804 802 800 798 796 794 792
907 897 892 889 884 880 877 871 867 871 875 874 877 887 896 900 902 900 901 901 893 884 880 875 863 849 840 839 840 842 844 846 850 852 853 855 855 855 856 856 855 856 856 856 856 856 856 855 855 853 851 850 848 847 847 846 845 844 843 843 841 839 837 834 832 829 827 825 822 820 819 817 816 814 812 810 808 806 804 802 800 798 795 794 791 789
906 897 891 888 883 877 875 872 871 875 878 874 872 880 892 901 903 902 898 883 874 880 871 852 853 856 842 836 841 842 842 845 848 851 852 852 852 852 853 853 853 853 853 854 854 854 855 855 853 851 850 849 847 846 844 843 842 843 842 841 839 838 836 833 831 828 825 823 820 818 816 814 813 811 809 808 805 804 801 799 797 795 793 791 788 786
907 897 892 892 887 882 881 878 874 874 874 870 866 868 880 896 900 894 887 877 876 880 862 841 848 854 841 836 840 839 841 844 846 848 849 849 850 850 850 851 851 851 851 852 852 852 853 853 851 849 848 847 846 844 842 841 841 841 840 839 838 836 834 832 830 827 824 821 818 816 813 812 810 808 807 805 803 801 799 796 795 792 790 788 785 783
906 897 895 896 891 886 881 874 870 869 867 863 862 860 863 876 887 886 880 876 877 874 859 850 855 851 840 837 837 836 838 842 843 844 845 847 848 848 849 850 849 849 850 850 851 851 851 851 850 848 845 844 844 843 841 841 840 839 838 837 835 834 832 830 828 826 823 820 817 814 812 809 807 805 804 802 800 798 796 794 792 789 787 784 782 780
904 895 891 894 894 882 869 864 863 861 859 857 856 854 855 860 868 874 874 874 876 871 861 860 860 848 836 833 834 834 835 837 839 841 842 844 846 846 847 848 847 848 848 849 849 849 848 849 848 847 845 843 842 841 841 839 838 837 836 835 833 832 830 828 826 824 822 819 816 814 811 808 805 803 801 799 797 795 793 791 789 786 784 781 778 776
906 899 891 894 896 878 860 857 857 856 858 858 854 852 854 855 855 856 858 861 864 861 858 861 858 842 829 829 830 830 831 834 836 838 840 842 843 845 845 845 845 846 846 847 847 846 846 846 846 845 844 842 841 841 840 838 836 835 834 833 831 830 828 826 824 822 820 818 815 813 810 807 804 801 799 796 794 792 790 788 786 783 781 778 775 772
906 903 897 898 895 874 859 859 861 860 852 841 840 844 845 848 849 848 848 849 850 851 853 852 842 828 824 827 828 826 828 832 833 835 838 840 840 842 842 843 843 843 844 845 844 844 844 843 843 843 841 840 840 840 838 837 835 833 832 831 829 828 826 824 822 820 818 816 814 812 809 807 804 801 797 795 792 790 788 785 783 781 778 775 773 770
906 906 902 899 893 877 865 864 865 857 836 821 827 837 837 839 842 842 840 839 839 841 841 836 826 822 824 825 825 825 826 829 831 833 835 836 837 838 839 839 840 841 842 842 841 841 841 840 841 840 839 838 838 837 836 835 834 832 831 829 827 826 824 822 820 818 816 814 812 810 808 806 803 800 796 793 790 788 785 783 780 778 776 773 770 767
905 906 901 898 897 885 873 870 860 836 819 824 838 842 840 840 841 842 838 834 834 833 830 827 824 821 822 822 822 823 824 826 829 830 831 833 833 834 835 836 837 838 839 839 839 839 839 839 838 838 836 836 836 835 834 833 832 831 829 827 826 824 822 820 818 816 814 812 810 808 806 804 801 798 795 792 789 786 783 780 777 775 773 771 768 766
902 904 899 896 895 885 876 876 862 831 816 829 843 846 847 847 847 848 838 826 827 830 825 824 823 820 821 822 821 822 825 828 830 829 828 828 828 830 832 833 834 835 835 836 836 836 837 837 836 835 834 834 833 832 832 831 830 829 827 825 824 822 820 818 816 814 812 810 808 806 805 802 799 797 794 791 788 785 781 778 775 773 771 768 766 764
898 899 901 897 887 880 880 879 866 842 824 827 837 843 846 846 846 851 842 821 817 824 824 822 821 820 821 820 820 824 829 832 831 825 823 823 824 827 829 829 831 832 832 833 833 833 834 834 834 833 832 831 830 830 829 829 828 827 825 823 822 820 818 816 814 813 811 808 807 805 803 801 798 794 792 789 786 783 780 777 773 770 768 766 763 761
901 899 900 896 882 879 885 880 868 849 824 819 835 844 846 846 846 855 855 832 814 815 818 819 819 819 818 820 822 827 834 835 827 819 819 822 823 824 826 827 828 828 829 830 831 831 832 831 831 831 830 829 828 827 827 827 826 824 823 821 820 818 816 814 812 811 809 806 805 803 800 799 796 793 790 787 784 781 778 775 772 769 767 764 761 759
904 902 902 903 895 891 890 883 876 858 828 820 838 849 850 850 850 856 851 825 809 813 815 815 818 817 818 821 824 829 837 834 820 812 818 822 820 822 824 824 825 826 826 828 828 828 829 829 828 828 827 827 825 825 825 825 823 822 820 819 818 816 814 812 810 809 807 804 802 800 798 796 794 791 788 785 782 780 777 774 771 767 765 763 760 757
908 905 905 907 901 896 893 885 874 855 830 827 843 851 851 853 854 851 829 804 806 817 815 813 817 817 817 821 824 830 834 825 811 809 816 818 818 820 821 820 822 823 823 825 825 826 826 826 826 825 825 824 823 822 823 822 821 820 818 817 816 814 812 810 808 807 805 802 800 798 796 794 791 789 786 783 780 777 775 772 770 766 764 761 759 756
904 904 902 899 893 891 889 882 870 846 828 833 846 850 852 854 849 836 811 798 808 816 812 813 816 814 816 819 821 823 820 812 807 809 813 815 815 817 817 818 819 820 821 822 823 823 824 823 823 823 822 822 821 820 820 820 819 817 816 814 813 811 809 808 806 804 802 800 798 795 793 791 789 786 784 781 778 775 773 771 769 766 763 760 757 754
880 887 889 889 889 883 875 873 866 841 825 837 849 851 855 847 826 811 803 803 810 811 809 812 812 810 813 814 813 813 809 806 807 808 809 812 813 813 815 816 817 817 818 819 820 820 821 821 820 820 819 819 819 818 818 818 816 815 814 812 810 808 807 806 804 802 800 797 795 793 790 788 786 784 781 779 776 773 770 768 767 764 761 759 755 753
860 865 868 869 870 866 864 867 854 823 816 837 845 846 852 835 804 795 802 804 804 805 805 807 807 807 809 807 806 806 804 804 806 805 806 809 809 811 813 813 814 815 815 816 817 818 818 818 817 817 817 816 816 815 815 815 814 812 811 809 808 806 805 803 802 800 798 795 793 790 787 785 783 781 779 776 774 772 769 766 764 762 760 758 754 751
855 854 850 846 846 848 852 848 825 802 814 834 827 818 824 817 798 797 803 800 799 800 801 801 801 801 802 802 802 802 801 802 803 802 805 806 806 808 809 809 811 812 812 814 814 814 815 815 814 814 814 813 813 813 813 812 811 810 808 806 805 804 803 801 799 798 795 793 790 787 784 782 780 778 776 774 773 770 767 765 762 760 759 756 754 751
846 848 847 843 841 839 834 822 807 800 814 826 816 803 803 802 798 800 800 796 796 796 795 796 795 795 796 797 798 798 799 799 799 800 802 803 803 805 806 806 808 808 809 810 811 811 812 812 811 811 811 810 810 810 809 809 808 806 805 804 803 802 800 799 797 795 793 790 788 785 782 779 777 775 774 773 771 769 766 764 761 759 757 755 753 750
843 848 850 846 843 838 825 812 808 806 806 809 810 805 800 797 795 796 795 793 791 789 790 791 790 790 792 793 794 795 794 794 796 798 799 800 801 802 802 803 804 805 806 807 807 808 809 809 809 809 807 807 807 807 806 806 805 803 802 801 800 799 798 796 795 793 791 788 786 783 781 778 775 773 772 772 770 768 766 763 761 759 757 755 753 750
845 850 850 845 845 841 822 804 803 804 799 799 801 799 796 794 791 790 790 787 785 785 786 785 785 786 788 790 790 790 789 791 794 794 795 797 797 798 799 800 800 801 802 803 804 805 805 806 806 805 804 804 804 803 803 802 801 800 799 798 798 796 795 794 792 790 788 786 783 781 779 777 774 772 771 769 768 767 765 763 761 759 756 754 752 749
843 852 849 843 844 840 820 803 801 801 796 795 795 792 789 787 785 784 785 783 782 783 783 782 783 784 785 785 786 786 786 788 789 789 791 792 793 794 795 795 796 797 798 799 800 801 801 802 802 802 801 801 800 800 800 799 798 797 796 795 795 794 792 791 790 788 786 784 781 779 777 776 774 771 769 767 766 765 763 761 759 758 755 753 751 748
847 850 842 836 838 836 820 805 801 798 792 788 787 785 783 781 780 780 780 780 781 781 780 780 780 780 780 780 781 782 782 782 783 784 786 787 788 789 790 791 792 793 794 795 796 797 797 797 798 798 798 797 797 797 796 795 795 794 793 793 792 791 790 788 787 786 784 781 780 778 776 774 772 770 768 766 764 763 762 760 758 756 754 752 750 748
847 841 834 835 836 829 813 800 796 795 789 781 778 779 779 777 777 777 777 778 778 777 777 777 777 777 777 776 776 778 777 776 777 779 780 781 782 784 785 787 788 789 790 791 792 793 793 793 793 794 794 793 793 793 792 792 792 791 790 790 789 789 788 786 784 783 781 779 778 776 774 772 770 769 767 765 763 761 760 758 757 755 753 751 749 747
838 829 827 830 825 813 802 795 795 796 790 780 777 779 778 777 777 776 774 774 773 772 773 773 773 773 773 771 771 772 770 769 771 773 774 775 777 778 780 782 783 784 786 787 788 788 789 789 789 790 790 789 790 789 789 789 788 788 787 787 786 786 786 784 783 781 779 777 776 774 772 771 769 767 765 763 762 761 758 756 754 753 751 750 748 746